| time (UTC) | temp F | wind direction | speed knots | gust knots | rain 1hr in | rain 24hr in | rain mn in | humidity % | barometer mb |
| 20260510004903 | 96 | 336 | 2.6 | 5.2 | 0.00 | 0.00 | 0.00 | 9 | 1008.0 |
| 20260510004404 | 97 | 218 | 1.7 | 5.2 | 0.00 | 0.00 | 0.00 | 9 | 1008.0 |
| 20260510003903 | 96 | 70 | 0.0 | 4.3 | 0.00 | 0.00 | 0.00 | 9 | 1008.0 |
| 20260510003404 | 97 | 199 | 1.7 | 4.3 | 0.00 | 0.00 | 0.00 | 9 | 1008.0 |
| 20260510002904 | 97 | 350 | 1.7 | 4.3 | 0.00 | 0.00 | 0.00 | 8 | 1008.0 |
| 20260510002404 | 97 | 288 | 2.6 | 5.2 | 0.00 | 0.00 | 0.00 | 9 | 1008.1 |
| 20260510001404 | 98 | 216 | 1.7 | 7.8 | 0.00 | 0.00 | 0.00 | 9 | 1008.1 |
| 20260510000904 | 97 | 21 | 1.7 | 7.0 | 0.00 | 0.00 | 0.00 | 9 | 1008.1 |
| 20260510000404 | 98 | 341 | 2.6 | 6.1 | 0.00 | 0.00 | 0.00 | 8 | 1008.1 |
| 20260509235903 | 98 | 231 | 1.7 | 6.1 | 0.00 | 0.00 | 0.00 | 8 | 1008.2 |
| 20260509235404 | 98 | 213 | 1.7 | 6.1 | 0.00 | 0.00 | 0.00 | 8 | 1008.1 |
| 20260509234903 | 98 | 319 | 1.7 | 7.0 | 0.00 | 0.00 | 0.00 | 9 | 1008.4 |
| 20260509234404 | 98 | 357 | 1.7 | 7.0 | 0.00 | 0.00 | 0.00 | 9 | 1008.4 |
| 20260509233903 | 99 | 5 | 3.5 | 7.0 | 0.00 | 0.00 | 0.00 | 8 | 1008.5 |
| 20260509233404 | 99 | 324 | 1.7 | 7.0 | 0.00 | 0.00 | 0.00 | 8 | 1008.5 |
| 20260509232904 | 99 | 231 | 2.6 | 7.0 | 0.00 | 0.00 | 0.00 | 8 | 1008.5 |
| 20260509232404 | 100 | 236 | 2.6 | 7.0 | 0.00 | 0.00 | 0.00 | 8 | 1008.6 |
| 20260509231904 | 99 | 190 | 2.6 | 7.0 | 0.00 | 0.00 | 0.00 | 8 | 1008.6 |
| 20260509231403 | 100 | 52 | 1.7 | 10.4 | 0.00 | 0.00 | 0.00 | 8 | 1008.6 |
| 20260509230903 | 100 | 301 | 4.3 | 10.4 | 0.00 | 0.00 | 0.00 | 9 | 1008.6 |
| 20260509230404 | 100 | 325 | 1.7 | 10.4 | 0.00 | 0.00 | 0.00 | 8 | 1008.6 |
| 20260509225904 | 100 | 248 | 2.6 | 7.8 | 0.00 | 0.00 | 0.00 | 8 | 1008.7 |
| 20260509225404 | 100 | 244 | 1.7 | 5.2 | 0.00 | 0.00 | 0.00 | 8 | 1008.7 |
| 20260509224903 | 100 | 32 | 1.7 | 10.4 | 0.00 | 0.00 | 0.00 | 9 | 1008.8 |
| 20260509224404 | 100 | 48 | 2.6 | 10.4 | 0.00 | 0.00 | 0.00 | 8 | 1008.8 |
| 20260509223903 | 100 | 207 | 1.7 | 12.2 | 0.00 | 0.00 | 0.00 | 9 | 1008.9 |
| 20260509222903 | 101 | 251 | 2.6 | 12.2 | 0.00 | 0.00 | 0.00 | 8 | 1009.1 |
| 20260509222403 | 100 | 211 | 0.9 | 5.2 | 0.00 | 0.00 | 0.00 | 8 | 1009.1 |
| 20260509221904 | 101 | 328 | 1.7 | 5.2 | 0.00 | 0.00 | 0.00 | 8 | 1009.1 |
| 20260509221404 | 101 | 252 | 1.7 | 8.7 | 0.00 | 0.00 | 0.00 | 8 | 1009.3 |
| 20260509220904 | 101 | 39 | 4.3 | 10.4 | 0.00 | 0.00 | 0.00 | 8 | 1009.4 |
| 20260509220404 | 101 | 227 | 3.5 | 10.4 | 0.00 | 0.00 | 0.00 | 8 | 1009.5 |
| 20260509215404 | 100 | 227 | 2.6 | 7.8 | 0.00 | 0.00 | 0.00 | 9 | 1009.6 |
| 20260509214904 | 100 | 44 | 2.6 | 6.1 | 0.00 | 0.00 | 0.00 | 9 | 1009.6 |
| 20260509214403 | 99 | 218 | 2.6 | 8.7 | 0.00 | 0.00 | 0.00 | 9 | 1009.7 |
| 20260509213904 | 100 | 34 | 2.6 | 8.7 | 0.00 | 0.00 | 0.00 | 9 | 1009.9 |
| 20260509213403 | 101 | 233 | 4.3 | 10.4 | 0.00 | 0.00 | 0.00 | 9 | 1009.9 |
| 20260509212904 | 100 | 359 | 1.7 | 10.4 | 0.00 | 0.00 | 0.00 | 9 | 1009.8 |
| 20260509212404 | 100 | 305 | 4.3 | 7.8 | 0.00 | 0.00 | 0.00 | 9 | 1010.0 |
| 20260509211904 | 99 | 242 | 2.6 | 7.8 | 0.00 | 0.00 | 0.00 | 9 | 1010.0 |
| 20260509210903 | 100 | 225 | 4.3 | 7.8 | 0.00 | 0.00 | 0.00 | 9 | 1010.2 |
| 20260509210404 | 100 | 243 | 1.7 | 7.8 | 0.00 | 0.00 | 0.00 | 9 | 1010.3 |
| 20260509205903 | 100 | 211 | 1.7 | 6.1 | 0.00 | 0.00 | 0.00 | 9 | 1010.4 |
| 20260509205403 | 99 | 283 | 1.7 | 6.1 | 0.00 | 0.00 | 0.00 | 9 | 1010.5 |
| 20260509204904 | 99 | 151 | 0.9 | 6.1 | 0.00 | 0.00 | 0.00 | 9 | 1010.6 |
| 20260509204404 | 100 | 21 | 2.6 | 6.1 | 0.00 | 0.00 | 0.00 | 9 | 1010.6 |
| 20260509203903 | 101 | 235 | 1.7 | 4.3 | 0.00 | 0.00 | 0.00 | 9 | 1010.8 |
| 20260509203404 | 100 | 213 | 0.9 | 7.8 | 0.00 | 0.00 | 0.00 | 9 | 1010.8 |
| 20260509202904 | 100 | 228 | 1.7 | 7.8 | 0.00 | 0.00 | 0.00 | 9 | 1010.9 |
| 20260509202404 | 100 | 196 | 1.7 | 7.0 | 0.00 | 0.00 | 0.00 | 10 | 1011.0 |
| 20260509201903 | 99 | 217 | 2.6 | 7.8 | 0.00 | 0.00 | 0.00 | 9 | 1011.0 |
| 20260509201403 | 99 | 228 | 2.6 | 7.8 | 0.00 | 0.00 | 0.00 | 9 | 1011.1 |
| 20260509200904 | 99 | 230 | 2.6 | 7.8 | 0.00 | 0.00 | 0.00 | 9 | 1011.2 |
| 20260509200403 | 100 | 244 | 1.7 | 8.7 | 0.00 | 0.00 | 0.00 | 9 | 1011.4 |
| 20260509195903 | 99 | 247 | 2.6 | 10.4 | 0.00 | 0.00 | 0.00 | 9 | 1011.3 |
| 20260509195404 | 98 | 225 | 4.3 | 10.4 | 0.00 | 0.00 | 0.00 | 9 | 1011.3 |
| 20260509194903 | 98 | 217 | 2.6 | 7.0 | 0.00 | 0.00 | 0.00 | 10 | 1011.4 |
| 20260509194404 | 99 | 265 | 2.6 | 7.8 | 0.00 | 0.00 | 0.00 | 9 | 1011.5 |
| 20260509193904 | 99 | 273 | 2.6 | 7.8 | 0.00 | 0.00 | 0.00 | 9 | 1011.5 |
| 20260509193403 | 98 | 309 | 2.6 | 7.8 | 0.00 | 0.00 | 0.00 | 10 | 1011.6 |
| 20260509192903 | 98 | 218 | 1.7 | 7.8 | 0.00 | 0.00 | 0.00 | 10 | 1011.7 |
| 20260509192403 | 98 | 154 | 1.7 | 7.8 | 0.00 | 0.00 | 0.00 | 10 | 1011.7 |
| 20260509191904 | 97 | 218 | 2.6 | 6.1 | 0.00 | 0.00 | 0.00 | 10 | 1011.7 |
| 20260509191404 | 97 | 263 | 2.6 | 7.0 | 0.00 | 0.00 | 0.00 | 11 | 1011.8 |
| 20260509190904 | 98 | 197 | 1.7 | 8.7 | 0.00 | 0.00 | 0.00 | 10 | 1011.9 |
| 20260509190404 | 97 | 235 | 4.3 | 8.7 | 0.00 | 0.00 | 0.00 | 10 | 1012.0 |
| 20260509185904 | 96 | 352 | 2.6 | 5.2 | 0.00 | 0.00 | 0.00 | 11 | 1012.0 |
| 20260509184903 | 97 | 200 | 1.7 | 5.2 | 0.00 | 0.00 | 0.00 | 11 | 1012.1 |
| 20260509184404 | 96 | 351 | 1.7 | 5.2 | 0.00 | 0.00 | 0.00 | 11 | 1012.1 |
| 20260509183904 | 96 | 248 | 1.7 | 5.2 | 0.00 | 0.00 | 0.00 | 11 | 1012.2 |
| 20260509183404 | 95 | 191 | 0.9 | 7.8 | 0.00 | 0.00 | 0.00 | 12 | 1012.3 |
| 20260509182904 | 95 | 229 | 1.7 | 7.8 | 0.00 | 0.00 | 0.00 | 12 | 1012.4 |
| 20260509182404 | 94 | 287 | 1.7 | 5.2 | 0.00 | 0.00 | 0.00 | 13 | 1012.5 |
| 20260509181903 | 93 | 223 | 0.9 | 6.1 | 0.00 | 0.00 | 0.00 | 13 | 1012.5 |
| 20260509181404 | 94 | 226 | 2.6 | 6.1 | 0.00 | 0.00 | 0.00 | 12 | 1012.6 |
| 20260509180903 | 93 | 245 | 2.6 | 4.3 | 0.00 | 0.00 | 0.00 | 13 | 1012.7 |
| 20260509180403 | 93 | 262 | 0.9 | 2.6 | 0.00 | 0.00 | 0.00 | 13 | 1012.7 |
| 20260509175903 | 93 | 220 | 0.9 | 2.6 | 0.00 | 0.00 | 0.00 | 12 | 1012.8 |
| 20260509174904 | 92 | 234 | 1.7 | 4.3 | 0.00 | 0.00 | 0.00 | 14 | 1013.0 |
| 20260509174403 | 91 | 237 | 0.9 | 5.2 | 0.00 | 0.00 | 0.00 | 13 | 1012.9 |
| 20260509173903 | 92 | 229 | 2.6 | 5.2 | 0.00 | 0.00 | 0.00 | 13 | 1012.9 |
| 20260509173404 | 91 | 239 | 2.6 | 5.2 | 0.00 | 0.00 | 0.00 | 14 | 1013.0 |
| 20260509172904 | 90 | 53 | 0.9 | 5.2 | 0.00 | 0.00 | 0.00 | 14 | 1013.0 |
| 20260509172404 | 90 | 301 | 1.7 | 5.2 | 0.00 | 0.00 | 0.00 | 14 | 1013.1 |
| 20260509171404 | 90 | 274 | 1.7 | 2.6 | 0.00 | 0.00 | 0.00 | 15 | 1013.2 |
| 20260509170904 | 90 | 228 | 0.9 | 2.6 | 0.00 | 0.00 | 0.00 | 15 | 1013.2 |
| 20260509170404 | 90 | 255 | 1.7 | 2.6 | 0.00 | 0.00 | 0.00 | 15 | 1013.3 |
| 20260509023903 | 87 | 8 | 0.9 | 1.7 | 0.00 | 0.00 | 0.00 | 14 | 1010.0 |
| 20260509022902 | 88 | 339 | 0.0 | 2.6 | 0.00 | 0.00 | 0.00 | 13 | 1009.9 |
| 20260509022403 | 88 | 36 | 0.0 | 2.6 | 0.00 | 0.00 | 0.00 | 13 | 1009.8 |
| 20260509021902 | 89 | 315 | 0.9 | 2.6 | 0.00 | 0.00 | 0.00 | 13 | 1009.8 |
| 20260509021402 | 89 | 256 | 0.9 | 2.6 | 0.00 | 0.00 | 0.00 | 12 | 1009.7 |
| 20260509020903 | 89 | 133 | 0.9 | 2.6 | 0.00 | 0.00 | 0.00 | 12 | 1009.7 |
| 20260509020402 | 90 | 241 | 0.9 | 2.6 | 0.00 | 0.00 | 0.00 | 12 | 1009.6 |
| 20260509015903 | 90 | 293 | 0.9 | 5.2 | 0.00 | 0.00 | 0.00 | 12 | 1009.7 |
| 20260509015403 | 90 | 207 | 0.9 | 6.1 | 0.00 | 0.00 | 0.00 | 12 | 1009.6 |
| 20260509014903 | 91 | 280 | 1.7 | 6.1 | 0.00 | 0.00 | 0.00 | 12 | 1009.6 |
| 20260509013903 | 91 | 234 | 2.6 | 7.0 | 0.00 | 0.00 | 0.00 | 11 | 1009.5 |
| 20260509013403 | 91 | 219 | 1.7 | 7.0 | 0.00 | 0.00 | 0.00 | 11 | 1009.4 |
| 20260509012402 | 92 | 214 | 1.7 | 7.8 | 0.00 | 0.00 | 0.00 | 11 | 1009.4 |
| 20260509011902 | 92 | 251 | 2.6 | 7.0 | 0.00 | 0.00 | 0.00 | 11 | 1009.4 |
| 20260509011402 | 92 | 246 | 1.7 | 7.0 | 0.00 | 0.00 | 0.00 | 11 | 1009.5 |
| 20260509010902 | 92 | 214 | 2.6 | 7.0 | 0.00 | 0.00 | 0.00 | 11 | 1009.4 |
| 20260509005902 | 93 | 220 | 2.6 | 6.1 | 0.00 | 0.00 | 0.00 | 11 | 1009.4 |
| 20260509005403 | 93 | 70 | 1.7 | 6.1 | 0.00 | 0.00 | 0.00 | 11 | 1009.4 |